Index of /20260430/WXO-DD/model_gdps/15km/12/141
Name Last modified Size Description
Parent Directory -
20260430T12Z_MSC_GDPS_AbsoluteVorticity_IsbL-0200_LatLon0.15_PT141H.grib2 2026-04-30 16:25 1.5M
20260430T12Z_MSC_GDPS_AbsoluteVorticity_IsbL-0250_LatLon0.15_PT141H.grib2 2026-04-30 16:25 1.3M
20260430T12Z_MSC_GDPS_AbsoluteVorticity_IsbL-0500_LatLon0.15_PT141H.grib2 2026-04-30 16:25 1.4M
20260430T12Z_MSC_GDPS_AbsoluteVorticity_IsbL-0700_LatLon0.15_PT141H.grib2 2026-04-30 16:25 1.6M
20260430T12Z_MSC_GDPS_AbsoluteVorticity_IsbL-0850_LatLon0.15_PT141H.grib2 2026-04-30 16:25 1.6M
20260430T12Z_MSC_GDPS_AirTemp_AGL-120m_LatLon0.15_PT141H.grib2 2026-04-30 16:25 904K
20260430T12Z_MSC_GDPS_AirTemp_AGL-2m_LatLon0.15_PT141H.grib2 2026-04-30 16:25 1.0M
20260430T12Z_MSC_GDPS_AirTemp_AGL-40m_LatLon0.15_PT141H.grib2 2026-04-30 16:25 922K
20260430T12Z_MSC_GDPS_AirTemp_AGL-80m_LatLon0.15_PT141H.grib2 2026-04-30 16:25 912K
20260430T12Z_MSC_GDPS_AirTemp_IsbL-0001_LatLon0.15_PT141H.grib2 2026-04-30 16:25 655K
20260430T12Z_MSC_GDPS_AirTemp_IsbL-0005_LatLon0.15_PT141H.grib2 2026-04-30 16:25 687K
20260430T12Z_MSC_GDPS_AirTemp_IsbL-0010_LatLon0.15_PT141H.grib2 2026-04-30 16:25 692K
20260430T12Z_MSC_GDPS_AirTemp_IsbL-0020_LatLon0.15_PT141H.grib2 2026-04-30 16:25 788K
20260430T12Z_MSC_GDPS_AirTemp_IsbL-0030_LatLon0.15_PT141H.grib2 2026-04-30 16:25 755K
20260430T12Z_MSC_GDPS_AirTemp_IsbL-0050_LatLon0.15_PT141H.grib2 2026-04-30 16:25 807K
20260430T12Z_MSC_GDPS_AirTemp_IsbL-0100_LatLon0.15_PT141H.grib2 2026-04-30 16:25 964K
20260430T12Z_MSC_GDPS_AirTemp_IsbL-0150_LatLon0.15_PT141H.grib2 2026-04-30 16:25 1.0M
20260430T12Z_MSC_GDPS_AirTemp_IsbL-0175_LatLon0.15_PT141H.grib2 2026-04-30 16:25 959K
20260430T12Z_MSC_GDPS_AirTemp_IsbL-0200_LatLon0.15_PT141H.grib2 2026-04-30 16:25 1.0M
20260430T12Z_MSC_GDPS_AirTemp_IsbL-0225_LatLon0.15_PT141H.grib2 2026-04-30 16:25 1.0M
20260430T12Z_MSC_GDPS_AirTemp_IsbL-0250_LatLon0.15_PT141H.grib2 2026-04-30 16:25 1.0M
20260430T12Z_MSC_GDPS_AirTemp_IsbL-0275_LatLon0.15_PT141H.grib2 2026-04-30 16:25 1.0M
20260430T12Z_MSC_GDPS_AirTemp_IsbL-0300_LatLon0.15_PT141H.grib2 2026-04-30 16:25 1.0M
20260430T12Z_MSC_GDPS_AirTemp_IsbL-0350_LatLon0.15_PT141H.grib2 2026-04-30 16:25 925K
20260430T12Z_MSC_GDPS_AirTemp_IsbL-0400_LatLon0.15_PT141H.grib2 2026-04-30 16:25 939K
20260430T12Z_MSC_GDPS_AirTemp_IsbL-0450_LatLon0.15_PT141H.grib2 2026-04-30 16:25 965K
20260430T12Z_MSC_GDPS_AirTemp_IsbL-0500_LatLon0.15_PT141H.grib2 2026-04-30 16:25 1.0M
20260430T12Z_MSC_GDPS_AirTemp_IsbL-0550_LatLon0.15_PT141H.grib2 2026-04-30 16:25 1.0M
20260430T12Z_MSC_GDPS_AirTemp_IsbL-0600_LatLon0.15_PT141H.grib2 2026-04-30 16:25 890K
20260430T12Z_MSC_GDPS_AirTemp_IsbL-0650_LatLon0.15_PT141H.grib2 2026-04-30 16:25 920K
20260430T12Z_MSC_GDPS_AirTemp_IsbL-0700_LatLon0.15_PT141H.grib2 2026-04-30 16:25 957K
20260430T12Z_MSC_GDPS_AirTemp_IsbL-0750_LatLon0.15_PT141H.grib2 2026-04-30 16:25 1.0M
20260430T12Z_MSC_GDPS_AirTemp_IsbL-0800_LatLon0.15_PT141H.grib2 2026-04-30 16:25 1.1M
20260430T12Z_MSC_GDPS_AirTemp_IsbL-0850_LatLon0.15_PT141H.grib2 2026-04-30 16:25 1.1M
20260430T12Z_MSC_GDPS_AirTemp_IsbL-0875_LatLon0.15_PT141H.grib2 2026-04-30 16:25 1.2M
20260430T12Z_MSC_GDPS_AirTemp_IsbL-0900_LatLon0.15_PT141H.grib2 2026-04-30 16:25 1.2M
20260430T12Z_MSC_GDPS_AirTemp_IsbL-0925_LatLon0.15_PT141H.grib2 2026-04-30 16:25 1.1M
20260430T12Z_MSC_GDPS_AirTemp_IsbL-0950_LatLon0.15_PT141H.grib2 2026-04-30 16:25 1.1M
20260430T12Z_MSC_GDPS_AirTemp_IsbL-0970_LatLon0.15_PT141H.grib2 2026-04-30 16:25 1.1M
20260430T12Z_MSC_GDPS_AirTemp_IsbL-0985_LatLon0.15_PT141H.grib2 2026-04-30 16:25 1.1M
20260430T12Z_MSC_GDPS_AirTemp_IsbL-1000_LatLon0.15_PT141H.grib2 2026-04-30 16:25 1.1M
20260430T12Z_MSC_GDPS_AirTemp_IsbL-1015_LatLon0.15_PT141H.grib2 2026-04-30 16:25 1.1M
20260430T12Z_MSC_GDPS_Albedo_Sfc_LatLon0.15_PT141H.grib2 2026-04-30 16:25 242K
20260430T12Z_MSC_GDPS_CAPE_Sfc_LatLon0.15_PT141H.grib2 2026-04-30 16:25 3.9M
20260430T12Z_MSC_GDPS_CIN_Sfc_LatLon0.15_PT141H.grib2 2026-04-30 16:25 3.0M
20260430T12Z_MSC_GDPS_CloudWater_EAtm_LatLon0.15_PT141H.grib2 2026-04-30 16:25 534K
20260430T12Z_MSC_GDPS_ConvectivePrecip-Accum_Sfc_LatLon0.15_PT141H.grib2 2026-04-30 16:25 3.6M
20260430T12Z_MSC_GDPS_DewPointDepression_AGL-2m_LatLon0.15_PT141H.grib2 2026-04-30 16:25 766K
20260430T12Z_MSC_GDPS_DewPointDepression_IsbL-0010_LatLon0.15_PT141H.grib2 2026-04-30 16:25 71K
20260430T12Z_MSC_GDPS_DewPointDepression_IsbL-0020_LatLon0.15_PT141H.grib2 2026-04-30 16:25 69K
20260430T12Z_MSC_GDPS_DewPointDepression_IsbL-0030_LatLon0.15_PT141H.grib2 2026-04-30 16:25 87K
20260430T12Z_MSC_GDPS_DewPointDepression_IsbL-0050_LatLon0.15_PT141H.grib2 2026-04-30 16:25 380K
20260430T12Z_MSC_GDPS_DewPointDepression_IsbL-0100_LatLon0.15_PT141H.grib2 2026-04-30 16:25 394K
20260430T12Z_MSC_GDPS_DewPointDepression_IsbL-0150_LatLon0.15_PT141H.grib2 2026-04-30 16:25 485K
20260430T12Z_MSC_GDPS_DewPointDepression_IsbL-0175_LatLon0.15_PT141H.grib2 2026-04-30 16:25 589K
20260430T12Z_MSC_GDPS_DewPointDepression_IsbL-0200_LatLon0.15_PT141H.grib2 2026-04-30 16:25 696K
20260430T12Z_MSC_GDPS_DewPointDepression_IsbL-0225_LatLon0.15_PT141H.grib2 2026-04-30 16:25 768K
20260430T12Z_MSC_GDPS_DewPointDepression_IsbL-0250_LatLon0.15_PT141H.grib2 2026-04-30 16:25 860K
20260430T12Z_MSC_GDPS_DewPointDepression_IsbL-0275_LatLon0.15_PT141H.grib2 2026-04-30 16:25 881K
20260430T12Z_MSC_GDPS_DewPointDepression_IsbL-0300_LatLon0.15_PT141H.grib2 2026-04-30 16:25 925K
20260430T12Z_MSC_GDPS_DewPointDepression_IsbL-0350_LatLon0.15_PT141H.grib2 2026-04-30 16:25 961K
20260430T12Z_MSC_GDPS_DewPointDepression_IsbL-0400_LatLon0.15_PT141H.grib2 2026-04-30 16:25 1.0M
20260430T12Z_MSC_GDPS_DewPointDepression_IsbL-0450_LatLon0.15_PT141H.grib2 2026-04-30 16:25 1.0M
20260430T12Z_MSC_GDPS_DewPointDepression_IsbL-0500_LatLon0.15_PT141H.grib2 2026-04-30 16:25 1.0M
20260430T12Z_MSC_GDPS_DewPointDepression_IsbL-0550_LatLon0.15_PT141H.grib2 2026-04-30 16:25 1.0M
20260430T12Z_MSC_GDPS_DewPointDepression_IsbL-0600_LatLon0.15_PT141H.grib2 2026-04-30 16:25 1.0M
20260430T12Z_MSC_GDPS_DewPointDepression_IsbL-0650_LatLon0.15_PT141H.grib2 2026-04-30 16:25 1.0M
20260430T12Z_MSC_GDPS_DewPointDepression_IsbL-0700_LatLon0.15_PT141H.grib2 2026-04-30 16:25 1.1M
20260430T12Z_MSC_GDPS_DewPointDepression_IsbL-0750_LatLon0.15_PT141H.grib2 2026-04-30 16:25 1.1M
20260430T12Z_MSC_GDPS_DewPointDepression_IsbL-0800_LatLon0.15_PT141H.grib2 2026-04-30 16:25 1.1M
20260430T12Z_MSC_GDPS_DewPointDepression_IsbL-0850_LatLon0.15_PT141H.grib2 2026-04-30 16:25 1.2M
20260430T12Z_MSC_GDPS_DewPointDepression_IsbL-0875_LatLon0.15_PT141H.grib2 2026-04-30 16:25 1.1M
20260430T12Z_MSC_GDPS_DewPointDepression_IsbL-0900_LatLon0.15_PT141H.grib2 2026-04-30 16:25 1.1M
20260430T12Z_MSC_GDPS_DewPointDepression_IsbL-0925_LatLon0.15_PT141H.grib2 2026-04-30 16:25 1.0M
20260430T12Z_MSC_GDPS_DewPointDepression_IsbL-0950_LatLon0.15_PT141H.grib2 2026-04-30 16:25 1.0M
20260430T12Z_MSC_GDPS_DewPointDepression_IsbL-0970_LatLon0.15_PT141H.grib2 2026-04-30 16:25 1.0M
20260430T12Z_MSC_GDPS_DewPointDepression_IsbL-0985_LatLon0.15_PT141H.grib2 2026-04-30 16:25 1.0M
20260430T12Z_MSC_GDPS_DewPointDepression_IsbL-1000_LatLon0.15_PT141H.grib2 2026-04-30 16:25 973K
20260430T12Z_MSC_GDPS_DewPointDepression_IsbL-1015_LatLon0.15_PT141H.grib2 2026-04-30 16:25 919K
20260430T12Z_MSC_GDPS_DewPoint_AGL-2m_LatLon0.15_PT141H.grib2 2026-04-30 16:25 610K
20260430T12Z_MSC_GDPS_DownwardLongwaveRadiationFlux-Accum_Sfc_LatLon0.15_PT141H.grib2 2026-04-30 16:25 836K
20260430T12Z_MSC_GDPS_DownwardShortwaveRadiationFlux-Accum_NTAtm_LatLon0.15_PT141H.grib2 2026-04-30 16:25 170K
20260430T12Z_MSC_GDPS_DownwardShortwaveRadiationFlux-Accum_Sfc_LatLon0.15_PT141H.grib2 2026-04-30 16:25 1.0M
20260430T12Z_MSC_GDPS_FreezingRain-Accum1h_Sfc_LatLon0.15_PT141H.grib2 2026-04-30 16:25 42K
20260430T12Z_MSC_GDPS_FreezingRain-Accum3h_Sfc_LatLon0.15_PT141H.grib2 2026-04-30 16:25 55K
20260430T12Z_MSC_GDPS_FreezingRain-Accum_Sfc_LatLon0.15_PT141H.grib2 2026-04-30 16:25 448K
20260430T12Z_MSC_GDPS_GeopotentialHeight_IsbL-0001_LatLon0.15_PT141H.grib2 2026-04-30 16:25 421K
20260430T12Z_MSC_GDPS_GeopotentialHeight_IsbL-0005_LatLon0.15_PT141H.grib2 2026-04-30 16:25 483K
20260430T12Z_MSC_GDPS_GeopotentialHeight_IsbL-0010_LatLon0.15_PT141H.grib2 2026-04-30 16:25 469K
20260430T12Z_MSC_GDPS_GeopotentialHeight_IsbL-0020_LatLon0.15_PT141H.grib2 2026-04-30 16:25 414K
20260430T12Z_MSC_GDPS_GeopotentialHeight_IsbL-0030_LatLon0.15_PT141H.grib2 2026-04-30 16:25 568K
20260430T12Z_MSC_GDPS_GeopotentialHeight_IsbL-0050_LatLon0.15_PT141H.grib2 2026-04-30 16:25 567K
20260430T12Z_MSC_GDPS_GeopotentialHeight_IsbL-0100_LatLon0.15_PT141H.grib2 2026-04-30 16:25 608K
20260430T12Z_MSC_GDPS_GeopotentialHeight_IsbL-0150_LatLon0.15_PT141H.grib2 2026-04-30 16:25 628K
20260430T12Z_MSC_GDPS_GeopotentialHeight_IsbL-0175_LatLon0.15_PT141H.grib2 2026-04-30 16:25 632K
20260430T12Z_MSC_GDPS_GeopotentialHeight_IsbL-0200_LatLon0.15_PT141H.grib2 2026-04-30 16:25 639K
20260430T12Z_MSC_GDPS_GeopotentialHeight_IsbL-0225_LatLon0.15_PT141H.grib2 2026-04-30 16:25 642K
20260430T12Z_MSC_GDPS_GeopotentialHeight_IsbL-0250_LatLon0.15_PT141H.grib2 2026-04-30 16:25 644K
20260430T12Z_MSC_GDPS_GeopotentialHeight_IsbL-0275_LatLon0.15_PT141H.grib2 2026-04-30 16:25 642K
20260430T12Z_MSC_GDPS_GeopotentialHeight_IsbL-0300_LatLon0.15_PT141H.grib2 2026-04-30 16:25 633K
20260430T12Z_MSC_GDPS_GeopotentialHeight_IsbL-0350_LatLon0.15_PT141H.grib2 2026-04-30 16:25 628K
20260430T12Z_MSC_GDPS_GeopotentialHeight_IsbL-0400_LatLon0.15_PT141H.grib2 2026-04-30 16:25 620K
20260430T12Z_MSC_GDPS_GeopotentialHeight_IsbL-0450_LatLon0.15_PT141H.grib2 2026-04-30 16:25 542K
20260430T12Z_MSC_GDPS_GeopotentialHeight_IsbL-0500_LatLon0.15_PT141H.grib2 2026-04-30 16:25 534K
20260430T12Z_MSC_GDPS_GeopotentialHeight_IsbL-0550_LatLon0.15_PT141H.grib2 2026-04-30 16:25 527K
20260430T12Z_MSC_GDPS_GeopotentialHeight_IsbL-0600_LatLon0.15_PT141H.grib2 2026-04-30 16:25 689K
20260430T12Z_MSC_GDPS_GeopotentialHeight_IsbL-0650_LatLon0.15_PT141H.grib2 2026-04-30 16:25 689K
20260430T12Z_MSC_GDPS_GeopotentialHeight_IsbL-0700_LatLon0.15_PT141H.grib2 2026-04-30 16:25 688K
20260430T12Z_MSC_GDPS_GeopotentialHeight_IsbL-0750_LatLon0.15_PT141H.grib2 2026-04-30 16:25 699K
20260430T12Z_MSC_GDPS_GeopotentialHeight_IsbL-0800_LatLon0.15_PT141H.grib2 2026-04-30 16:25 710K
20260430T12Z_MSC_GDPS_GeopotentialHeight_IsbL-0850_LatLon0.15_PT141H.grib2 2026-04-30 16:25 722K
20260430T12Z_MSC_GDPS_GeopotentialHeight_IsbL-0875_LatLon0.15_PT141H.grib2 2026-04-30 16:25 722K
20260430T12Z_MSC_GDPS_GeopotentialHeight_IsbL-0900_LatLon0.15_PT141H.grib2 2026-04-30 16:25 732K
20260430T12Z_MSC_GDPS_GeopotentialHeight_IsbL-0925_LatLon0.15_PT141H.grib2 2026-04-30 16:25 736K
20260430T12Z_MSC_GDPS_GeopotentialHeight_IsbL-0950_LatLon0.15_PT141H.grib2 2026-04-30 16:25 744K
20260430T12Z_MSC_GDPS_GeopotentialHeight_IsbL-0970_LatLon0.15_PT141H.grib2 2026-04-30 16:25 754K
20260430T12Z_MSC_GDPS_GeopotentialHeight_IsbL-0985_LatLon0.15_PT141H.grib2 2026-04-30 16:25 769K
20260430T12Z_MSC_GDPS_GeopotentialHeight_IsbL-1000_LatLon0.15_PT141H.grib2 2026-04-30 16:25 789K
20260430T12Z_MSC_GDPS_GeopotentialHeight_IsbL-1015_LatLon0.15_PT141H.grib2 2026-04-30 16:25 812K
20260430T12Z_MSC_GDPS_Humidex_Sfc_LatLon0.15_PT141H.grib2 2026-04-30 16:25 5.3M
20260430T12Z_MSC_GDPS_IcePellets-Accum1h_Sfc_LatLon0.15_PT141H.grib2 2026-04-30 16:25 8.9K
20260430T12Z_MSC_GDPS_IcePellets-Accum3h_Sfc_LatLon0.15_PT141H.grib2 2026-04-30 16:25 13K
20260430T12Z_MSC_GDPS_IcePellets-Accum_Sfc_LatLon0.15_PT141H.grib2 2026-04-30 16:25 143K
20260430T12Z_MSC_GDPS_KIndex_Sfc_LatLon0.15_PT141H.grib2 2026-04-30 16:25 6.5M
20260430T12Z_MSC_GDPS_LatentHeatNetFlux_Sfc_LatLon0.15_PT141H.grib2 2026-04-30 16:25 569K
20260430T12Z_MSC_GDPS_LiftedIndex-MU-VT_IsbL-0500_LatLon0.15_PT141H.grib2 2026-04-30 16:25 5.4M
20260430T12Z_MSC_GDPS_NetLongwaveRadiationFlux-Accum_Sfc_LatLon0.15_PT141H.grib2 2026-04-30 16:25 1.1M
20260430T12Z_MSC_GDPS_NetShortwaveRadiationFlux-Accum_Sfc_LatLon0.15_PT141H.grib2 2026-04-30 16:25 1.0M
20260430T12Z_MSC_GDPS_O3MixingRatio_Sfc_LatLon0.15_PT141H.grib2 2026-04-30 16:45 2.2M
20260430T12Z_MSC_GDPS_O3_EAtm_LatLon0.15_PT141H.grib2 2026-04-30 16:45 2.4M
20260430T12Z_MSC_GDPS_PlanetaryBoundaryLayerHeight_Sfc_LatLon0.15_PT141H.grib2 2026-04-30 16:25 2.5M
20260430T12Z_MSC_GDPS_Precip-Accum1h_Sfc_LatLon0.15_PT141H.grib2 2026-04-30 16:25 3.2M
20260430T12Z_MSC_GDPS_Precip-Accum3h_Sfc_LatLon0.15_PT141H.grib2 2026-04-30 16:25 3.5M
20260430T12Z_MSC_GDPS_Precip-Accum_Sfc_LatLon0.15_PT141H.grib2 2026-04-30 16:25 5.2M
20260430T12Z_MSC_GDPS_PrecipRate_Sfc_LatLon0.15_PT141H.grib2 2026-04-30 16:25 3.0M
20260430T12Z_MSC_GDPS_PrecipType-Instant_Sfc_LatLon0.15_PT141H.grib2 2026-04-30 16:25 1.6M
20260430T12Z_MSC_GDPS_Pressure_MSL_LatLon0.15_PT141H.grib2 2026-04-30 16:25 720K
20260430T12Z_MSC_GDPS_Pressure_PVU-1.5_LatLon0.15_PT141H.grib2 2026-04-30 16:25 5.8M
20260430T12Z_MSC_GDPS_Pressure_PVU-1_LatLon0.15_PT141H.grib2 2026-04-30 16:25 6.0M
20260430T12Z_MSC_GDPS_Pressure_PVU-2_LatLon0.15_PT141H.grib2 2026-04-30 16:25 5.6M
20260430T12Z_MSC_GDPS_Pressure_Sfc_LatLon0.15_PT141H.grib2 2026-04-30 16:25 1.1M
20260430T12Z_MSC_GDPS_RadiativeTemp_Sfc_LatLon0.15_PT141H.grib2 2026-04-30 16:25 504K
20260430T12Z_MSC_GDPS_Rain-Accum1h_Sfc_LatLon0.15_PT141H.grib2 2026-04-30 16:25 1.7M
20260430T12Z_MSC_GDPS_Rain-Accum3h_Sfc_LatLon0.15_PT141H.grib2 2026-04-30 16:25 1.7M
20260430T12Z_MSC_GDPS_Rain-Accum_Sfc_LatLon0.15_PT141H.grib2 2026-04-30 16:25 4.1M
20260430T12Z_MSC_GDPS_RelativeHumidity_AGL-2m_LatLon0.15_PT141H.grib2 2026-04-30 16:25 1.1M
20260430T12Z_MSC_GDPS_RelativeHumidity_IsbL-0010_LatLon0.15_PT141H.grib2 2026-04-30 16:25 125K
20260430T12Z_MSC_GDPS_RelativeHumidity_IsbL-0020_LatLon0.15_PT141H.grib2 2026-04-30 16:25 161K
20260430T12Z_MSC_GDPS_RelativeHumidity_IsbL-0030_LatLon0.15_PT141H.grib2 2026-04-30 16:25 265K
20260430T12Z_MSC_GDPS_RelativeHumidity_IsbL-0050_LatLon0.15_PT141H.grib2 2026-04-30 16:25 519K
20260430T12Z_MSC_GDPS_RelativeHumidity_IsbL-0100_LatLon0.15_PT141H.grib2 2026-04-30 16:25 498K
20260430T12Z_MSC_GDPS_RelativeHumidity_IsbL-0150_LatLon0.15_PT141H.grib2 2026-04-30 16:25 663K
20260430T12Z_MSC_GDPS_RelativeHumidity_IsbL-0175_LatLon0.15_PT141H.grib2 2026-04-30 16:25 796K
20260430T12Z_MSC_GDPS_RelativeHumidity_IsbL-0200_LatLon0.15_PT141H.grib2 2026-04-30 16:25 711K
20260430T12Z_MSC_GDPS_RelativeHumidity_IsbL-0225_LatLon0.15_PT141H.grib2 2026-04-30 16:25 789K
20260430T12Z_MSC_GDPS_RelativeHumidity_IsbL-0250_LatLon0.15_PT141H.grib2 2026-04-30 16:25 861K
20260430T12Z_MSC_GDPS_RelativeHumidity_IsbL-0275_LatLon0.15_PT141H.grib2 2026-04-30 16:25 884K
20260430T12Z_MSC_GDPS_RelativeHumidity_IsbL-0300_LatLon0.15_PT141H.grib2 2026-04-30 16:25 925K
20260430T12Z_MSC_GDPS_RelativeHumidity_IsbL-0350_LatLon0.15_PT141H.grib2 2026-04-30 16:25 946K
20260430T12Z_MSC_GDPS_RelativeHumidity_IsbL-0400_LatLon0.15_PT141H.grib2 2026-04-30 16:25 971K
20260430T12Z_MSC_GDPS_RelativeHumidity_IsbL-0450_LatLon0.15_PT141H.grib2 2026-04-30 16:25 1.0M
20260430T12Z_MSC_GDPS_RelativeHumidity_IsbL-0500_LatLon0.15_PT141H.grib2 2026-04-30 16:25 1.0M
20260430T12Z_MSC_GDPS_RelativeHumidity_IsbL-0550_LatLon0.15_PT141H.grib2 2026-04-30 16:25 1.0M
20260430T12Z_MSC_GDPS_RelativeHumidity_IsbL-0600_LatLon0.15_PT141H.grib2 2026-04-30 16:25 1.0M
20260430T12Z_MSC_GDPS_RelativeHumidity_IsbL-0650_LatLon0.15_PT141H.grib2 2026-04-30 16:25 1.1M
20260430T12Z_MSC_GDPS_RelativeHumidity_IsbL-0700_LatLon0.15_PT141H.grib2 2026-04-30 16:25 1.1M
20260430T12Z_MSC_GDPS_RelativeHumidity_IsbL-0750_LatLon0.15_PT141H.grib2 2026-04-30 16:25 1.2M
20260430T12Z_MSC_GDPS_RelativeHumidity_IsbL-0800_LatLon0.15_PT141H.grib2 2026-04-30 16:25 1.2M
20260430T12Z_MSC_GDPS_RelativeHumidity_IsbL-0850_LatLon0.15_PT141H.grib2 2026-04-30 16:25 1.3M
20260430T12Z_MSC_GDPS_RelativeHumidity_IsbL-0875_LatLon0.15_PT141H.grib2 2026-04-30 16:25 1.3M
20260430T12Z_MSC_GDPS_RelativeHumidity_IsbL-0900_LatLon0.15_PT141H.grib2 2026-04-30 16:25 1.2M
20260430T12Z_MSC_GDPS_RelativeHumidity_IsbL-0925_LatLon0.15_PT141H.grib2 2026-04-30 16:25 1.2M
20260430T12Z_MSC_GDPS_RelativeHumidity_IsbL-0950_LatLon0.15_PT141H.grib2 2026-04-30 16:25 1.2M
20260430T12Z_MSC_GDPS_RelativeHumidity_IsbL-0970_LatLon0.15_PT141H.grib2 2026-04-30 16:25 1.2M
20260430T12Z_MSC_GDPS_RelativeHumidity_IsbL-0985_LatLon0.15_PT141H.grib2 2026-04-30 16:25 1.1M
20260430T12Z_MSC_GDPS_RelativeHumidity_IsbL-1000_LatLon0.15_PT141H.grib2 2026-04-30 16:25 1.1M
20260430T12Z_MSC_GDPS_RelativeHumidity_IsbL-1015_LatLon0.15_PT141H.grib2 2026-04-30 16:25 1.0M
20260430T12Z_MSC_GDPS_RelativeVorticity_IsbL-0200_LatLon0.15_PT141H.grib2 2026-04-30 16:25 1.5M
20260430T12Z_MSC_GDPS_RelativeVorticity_IsbL-0250_LatLon0.15_PT141H.grib2 2026-04-30 16:25 1.3M
20260430T12Z_MSC_GDPS_RelativeVorticity_IsbL-0500_LatLon0.15_PT141H.grib2 2026-04-30 16:25 1.4M
20260430T12Z_MSC_GDPS_RelativeVorticity_IsbL-0700_LatLon0.15_PT141H.grib2 2026-04-30 16:25 1.6M
20260430T12Z_MSC_GDPS_RelativeVorticity_IsbL-0850_LatLon0.15_PT141H.grib2 2026-04-30 16:25 1.6M
20260430T12Z_MSC_GDPS_Runoff-Accum_Sfc_LatLon0.15_PT141H.grib2 2026-04-30 16:25 153K
20260430T12Z_MSC_GDPS_SensibleHeatNetFlux_Sfc_LatLon0.15_PT141H.grib2 2026-04-30 16:25 676K
20260430T12Z_MSC_GDPS_ShowalterIndex_IsbL-0500_LatLon0.15_PT141H.grib2 2026-04-30 16:25 6.2M
20260430T12Z_MSC_GDPS_Snow-Accum1h_Sfc_LatLon0.15_PT141H.grib2 2026-04-30 16:25 1.1M
20260430T12Z_MSC_GDPS_Snow-Accum3h_Sfc_LatLon0.15_PT141H.grib2 2026-04-30 16:25 1.1M
20260430T12Z_MSC_GDPS_Snow-Accum_Sfc_LatLon0.15_PT141H.grib2 2026-04-30 16:25 2.0M
20260430T12Z_MSC_GDPS_SnowDensity_Sfc_LatLon0.15_PT141H.grib2 2026-04-30 16:25 263K
20260430T12Z_MSC_GDPS_SnowDepth_Sfc_LatLon0.15_PT141H.grib2 2026-04-30 16:25 1.7M
20260430T12Z_MSC_GDPS_SoilTemp_DBS-0to10cm_LatLon0.15_PT141H.grib2 2026-04-30 16:25 513K
20260430T12Z_MSC_GDPS_SoilTemp_Sfc_LatLon0.15_PT141H.grib2 2026-04-30 16:25 584K
20260430T12Z_MSC_GDPS_SoilVolumetricIceContent_Sfc_LatLon0.15_PT141H.grib2 2026-04-30 16:25 190K
20260430T12Z_MSC_GDPS_SoilVolumetricWaterContent_DBS-0to10cm_LatLon0.15_PT141H.grib2 2026-04-30 16:25 593K
20260430T12Z_MSC_GDPS_SoilVolumetricWaterContent_DBS-0to1cm_LatLon0.15_PT141H.grib2 2026-04-30 16:25 649K
20260430T12Z_MSC_GDPS_SpecificHumidity_AGL-120m_LatLon0.15_PT141H.grib2 2026-04-30 16:25 1.1M
20260430T12Z_MSC_GDPS_SpecificHumidity_AGL-2m_LatLon0.15_PT141H.grib2 2026-04-30 16:25 1.2M
20260430T12Z_MSC_GDPS_SpecificHumidity_AGL-40m_LatLon0.15_PT141H.grib2 2026-04-30 16:25 1.1M
20260430T12Z_MSC_GDPS_SpecificHumidity_AGL-80m_LatLon0.15_PT141H.grib2 2026-04-30 16:25 1.1M
20260430T12Z_MSC_GDPS_SpecificHumidity_IsbL-0001_LatLon0.15_PT141H.grib2 2026-04-30 16:25 1.2M
20260430T12Z_MSC_GDPS_SpecificHumidity_IsbL-0005_LatLon0.15_PT141H.grib2 2026-04-30 16:25 1.1M
20260430T12Z_MSC_GDPS_SpecificHumidity_IsbL-0010_LatLon0.15_PT141H.grib2 2026-04-30 16:25 1.2M
20260430T12Z_MSC_GDPS_SpecificHumidity_IsbL-0020_LatLon0.15_PT141H.grib2 2026-04-30 16:25 1.3M
20260430T12Z_MSC_GDPS_SpecificHumidity_IsbL-0030_LatLon0.15_PT141H.grib2 2026-04-30 16:25 1.5M
20260430T12Z_MSC_GDPS_SpecificHumidity_IsbL-0050_LatLon0.15_PT141H.grib2 2026-04-30 16:25 1.6M
20260430T12Z_MSC_GDPS_SpecificHumidity_IsbL-0100_LatLon0.15_PT141H.grib2 2026-04-30 16:25 1.3M
20260430T12Z_MSC_GDPS_SpecificHumidity_IsbL-0150_LatLon0.15_PT141H.grib2 2026-04-30 16:25 1.3M
20260430T12Z_MSC_GDPS_SpecificHumidity_IsbL-0175_LatLon0.15_PT141H.grib2 2026-04-30 16:25 1.3M
20260430T12Z_MSC_GDPS_SpecificHumidity_IsbL-0200_LatLon0.15_PT141H.grib2 2026-04-30 16:25 1.3M
20260430T12Z_MSC_GDPS_SpecificHumidity_IsbL-0225_LatLon0.15_PT141H.grib2 2026-04-30 16:25 1.3M
20260430T12Z_MSC_GDPS_SpecificHumidity_IsbL-0250_LatLon0.15_PT141H.grib2 2026-04-30 16:25 1.4M
20260430T12Z_MSC_GDPS_SpecificHumidity_IsbL-0275_LatLon0.15_PT141H.grib2 2026-04-30 16:25 1.3M
20260430T12Z_MSC_GDPS_SpecificHumidity_IsbL-0300_LatLon0.15_PT141H.grib2 2026-04-30 16:25 1.2M
20260430T12Z_MSC_GDPS_SpecificHumidity_IsbL-0350_LatLon0.15_PT141H.grib2 2026-04-30 16:25 1.2M
20260430T12Z_MSC_GDPS_SpecificHumidity_IsbL-0400_LatLon0.15_PT141H.grib2 2026-04-30 16:25 1.5M
20260430T12Z_MSC_GDPS_SpecificHumidity_IsbL-0450_LatLon0.15_PT141H.grib2 2026-04-30 16:25 1.6M
20260430T12Z_MSC_GDPS_SpecificHumidity_IsbL-0500_LatLon0.15_PT141H.grib2 2026-04-30 16:25 1.4M
20260430T12Z_MSC_GDPS_SpecificHumidity_IsbL-0550_LatLon0.15_PT141H.grib2 2026-04-30 16:25 1.6M
20260430T12Z_MSC_GDPS_SpecificHumidity_IsbL-0600_LatLon0.15_PT141H.grib2 2026-04-30 16:25 1.7M
20260430T12Z_MSC_GDPS_SpecificHumidity_IsbL-0650_LatLon0.15_PT141H.grib2 2026-04-30 16:25 1.5M
20260430T12Z_MSC_GDPS_SpecificHumidity_IsbL-0700_LatLon0.15_PT141H.grib2 2026-04-30 16:25 1.6M
20260430T12Z_MSC_GDPS_SpecificHumidity_IsbL-0750_LatLon0.15_PT141H.grib2 2026-04-30 16:25 1.7M
20260430T12Z_MSC_GDPS_SpecificHumidity_IsbL-0800_LatLon0.15_PT141H.grib2 2026-04-30 16:25 1.8M
20260430T12Z_MSC_GDPS_SpecificHumidity_IsbL-0850_LatLon0.15_PT141H.grib2 2026-04-30 16:25 1.9M
20260430T12Z_MSC_GDPS_SpecificHumidity_IsbL-0875_LatLon0.15_PT141H.grib2 2026-04-30 16:25 1.9M
20260430T12Z_MSC_GDPS_SpecificHumidity_IsbL-0900_LatLon0.15_PT141H.grib2 2026-04-30 16:25 1.6M
20260430T12Z_MSC_GDPS_SpecificHumidity_IsbL-0925_LatLon0.15_PT141H.grib2 2026-04-30 16:25 1.6M
20260430T12Z_MSC_GDPS_SpecificHumidity_IsbL-0950_LatLon0.15_PT141H.grib2 2026-04-30 16:25 1.6M
20260430T12Z_MSC_GDPS_SpecificHumidity_IsbL-0970_LatLon0.15_PT141H.grib2 2026-04-30 16:25 1.5M
20260430T12Z_MSC_GDPS_SpecificHumidity_IsbL-0985_LatLon0.15_PT141H.grib2 2026-04-30 16:25 1.5M
20260430T12Z_MSC_GDPS_SpecificHumidity_IsbL-1000_LatLon0.15_PT141H.grib2 2026-04-30 16:25 1.5M
20260430T12Z_MSC_GDPS_SpecificHumidity_IsbL-1015_LatLon0.15_PT141H.grib2 2026-04-30 16:25 1.5M
20260430T12Z_MSC_GDPS_SpecificHumidity_Sfc_LatLon0.15_PT141H.grib2 2026-04-30 16:25 601K
20260430T12Z_MSC_GDPS_Thickness_IsbL-0850to0700_LatLon0.15_PT141H.grib2 2026-04-30 16:25 472K
20260430T12Z_MSC_GDPS_Thickness_IsbL-1000to0500_LatLon0.15_PT141H.grib2 2026-04-30 16:25 375K
20260430T12Z_MSC_GDPS_Thickness_IsbL-1000to0850_LatLon0.15_PT141H.grib2 2026-04-30 16:25 492K
20260430T12Z_MSC_GDPS_TotalCloudCover_Sfc_LatLon0.15_PT141H.grib2 2026-04-30 16:25 821K
20260430T12Z_MSC_GDPS_TotalTotalsIndex_Sfc_LatLon0.15_PT141H.grib2 2026-04-30 16:25 6.2M
20260430T12Z_MSC_GDPS_UVIndex-ClearSky_Sfc_LatLon0.15_PT141H.grib2 2026-04-30 16:45 1.1M
20260430T12Z_MSC_GDPS_UVIndex_Sfc_LatLon0.15_PT141H.grib2 2026-04-30 16:45 1.5M
20260430T12Z_MSC_GDPS_UpwardLongwaveRadiationFlux_NTAtm_LatLon0.15_PT141H.grib2 2026-04-30 16:25 835K
20260430T12Z_MSC_GDPS_VerticalVelocity_IsbL-0200_LatLon0.15_PT141H.grib2 2026-04-30 16:25 1.2M
20260430T12Z_MSC_GDPS_VerticalVelocity_IsbL-0250_LatLon0.15_PT141H.grib2 2026-04-30 16:25 1.0M
20260430T12Z_MSC_GDPS_VerticalVelocity_IsbL-0500_LatLon0.15_PT141H.grib2 2026-04-30 16:25 1.3M
20260430T12Z_MSC_GDPS_VerticalVelocity_IsbL-0600_LatLon0.15_PT141H.grib2 2026-04-30 16:25 1.1M
20260430T12Z_MSC_GDPS_VerticalVelocity_IsbL-0700_LatLon0.15_PT141H.grib2 2026-04-30 16:25 1.4M
20260430T12Z_MSC_GDPS_VerticalVelocity_IsbL-0850_LatLon0.15_PT141H.grib2 2026-04-30 16:25 1.3M
20260430T12Z_MSC_GDPS_WindChill_Sfc_LatLon0.15_PT141H.grib2 2026-04-30 16:25 5.3M
20260430T12Z_MSC_GDPS_WindDir_AGL-10m_LatLon0.15_PT141H.grib2 2026-04-30 16:25 1.3M
20260430T12Z_MSC_GDPS_WindDir_AGL-120m_LatLon0.15_PT141H.grib2 2026-04-30 16:25 1.3M
20260430T12Z_MSC_GDPS_WindDir_AGL-40m_LatLon0.15_PT141H.grib2 2026-04-30 16:25 1.4M
20260430T12Z_MSC_GDPS_WindDir_AGL-80m_LatLon0.15_PT141H.grib2 2026-04-30 16:25 1.3M
20260430T12Z_MSC_GDPS_WindDir_IsbL-0001_LatLon0.15_PT141H.grib2 2026-04-30 16:25 655K
20260430T12Z_MSC_GDPS_WindDir_IsbL-0005_LatLon0.15_PT141H.grib2 2026-04-30 16:25 811K
20260430T12Z_MSC_GDPS_WindDir_IsbL-0010_LatLon0.15_PT141H.grib2 2026-04-30 16:25 842K
20260430T12Z_MSC_GDPS_WindDir_IsbL-0020_LatLon0.15_PT141H.grib2 2026-04-30 16:25 943K
20260430T12Z_MSC_GDPS_WindDir_IsbL-0030_LatLon0.15_PT141H.grib2 2026-04-30 16:25 935K
20260430T12Z_MSC_GDPS_WindDir_IsbL-0050_LatLon0.15_PT141H.grib2 2026-04-30 16:25 941K
20260430T12Z_MSC_GDPS_WindDir_IsbL-0100_LatLon0.15_PT141H.grib2 2026-04-30 16:25 1.0M
20260430T12Z_MSC_GDPS_WindDir_IsbL-0150_LatLon0.15_PT141H.grib2 2026-04-30 16:25 1.0M
20260430T12Z_MSC_GDPS_WindDir_IsbL-0175_LatLon0.15_PT141H.grib2 2026-04-30 16:25 1.0M
20260430T12Z_MSC_GDPS_WindDir_IsbL-0200_LatLon0.15_PT141H.grib2 2026-04-30 16:25 1.1M
20260430T12Z_MSC_GDPS_WindDir_IsbL-0225_LatLon0.15_PT141H.grib2 2026-04-30 16:25 1.1M
20260430T12Z_MSC_GDPS_WindDir_IsbL-0250_LatLon0.15_PT141H.grib2 2026-04-30 16:25 1.1M
20260430T12Z_MSC_GDPS_WindDir_IsbL-0275_LatLon0.15_PT141H.grib2 2026-04-30 16:25 1.2M
20260430T12Z_MSC_GDPS_WindDir_IsbL-0300_LatLon0.15_PT141H.grib2 2026-04-30 16:25 1.2M
20260430T12Z_MSC_GDPS_WindDir_IsbL-0350_LatLon0.15_PT141H.grib2 2026-04-30 16:25 1.2M
20260430T12Z_MSC_GDPS_WindDir_IsbL-0400_LatLon0.15_PT141H.grib2 2026-04-30 16:25 1.3M
20260430T12Z_MSC_GDPS_WindDir_IsbL-0450_LatLon0.15_PT141H.grib2 2026-04-30 16:25 1.3M
20260430T12Z_MSC_GDPS_WindDir_IsbL-0500_LatLon0.15_PT141H.grib2 2026-04-30 16:25 1.4M
20260430T12Z_MSC_GDPS_WindDir_IsbL-0550_LatLon0.15_PT141H.grib2 2026-04-30 16:25 1.4M
20260430T12Z_MSC_GDPS_WindDir_IsbL-0600_LatLon0.15_PT141H.grib2 2026-04-30 16:25 1.4M
20260430T12Z_MSC_GDPS_WindDir_IsbL-0650_LatLon0.15_PT141H.grib2 2026-04-30 16:25 1.5M
20260430T12Z_MSC_GDPS_WindDir_IsbL-0700_LatLon0.15_PT141H.grib2 2026-04-30 16:25 1.6M
20260430T12Z_MSC_GDPS_WindDir_IsbL-0750_LatLon0.15_PT141H.grib2 2026-04-30 16:25 1.7M
20260430T12Z_MSC_GDPS_WindDir_IsbL-0800_LatLon0.15_PT141H.grib2 2026-04-30 16:25 1.8M
20260430T12Z_MSC_GDPS_WindDir_IsbL-0850_LatLon0.15_PT141H.grib2 2026-04-30 16:25 1.9M
20260430T12Z_MSC_GDPS_WindDir_IsbL-0875_LatLon0.15_PT141H.grib2 2026-04-30 16:25 1.9M
20260430T12Z_MSC_GDPS_WindDir_IsbL-0900_LatLon0.15_PT141H.grib2 2026-04-30 16:25 1.9M
20260430T12Z_MSC_GDPS_WindDir_IsbL-0925_LatLon0.15_PT141H.grib2 2026-04-30 16:25 1.9M
20260430T12Z_MSC_GDPS_WindDir_IsbL-0950_LatLon0.15_PT141H.grib2 2026-04-30 16:25 1.9M
20260430T12Z_MSC_GDPS_WindDir_IsbL-0970_LatLon0.15_PT141H.grib2 2026-04-30 16:25 2.0M
20260430T12Z_MSC_GDPS_WindDir_IsbL-0985_LatLon0.15_PT141H.grib2 2026-04-30 16:25 2.0M
20260430T12Z_MSC_GDPS_WindDir_IsbL-1000_LatLon0.15_PT141H.grib2 2026-04-30 16:25 2.0M
20260430T12Z_MSC_GDPS_WindDir_IsbL-1015_LatLon0.15_PT141H.grib2 2026-04-30 16:25 2.0M
20260430T12Z_MSC_GDPS_WindGust-Max_AGL-10m_LatLon0.15_PT141H.grib2 2026-04-30 16:25 2.2M
20260430T12Z_MSC_GDPS_WindGust-Min_AGL-10m_LatLon0.15_PT141H.grib2 2026-04-30 16:25 2.2M
20260430T12Z_MSC_GDPS_WindGust_AGL-10m_LatLon0.15_PT141H.grib2 2026-04-30 16:25 2.2M
20260430T12Z_MSC_GDPS_WindSpeed_AGL-10m_LatLon0.15_PT141H.grib2 2026-04-30 16:25 1.1M
20260430T12Z_MSC_GDPS_WindSpeed_AGL-120m_LatLon0.15_PT141H.grib2 2026-04-30 16:25 1.2M
20260430T12Z_MSC_GDPS_WindSpeed_AGL-40m_LatLon0.15_PT141H.grib2 2026-04-30 16:25 1.2M
20260430T12Z_MSC_GDPS_WindSpeed_AGL-80m_LatLon0.15_PT141H.grib2 2026-04-30 16:25 1.2M
20260430T12Z_MSC_GDPS_WindSpeed_IsbL-0001_LatLon0.15_PT141H.grib2 2026-04-30 16:25 645K
20260430T12Z_MSC_GDPS_WindSpeed_IsbL-0005_LatLon0.15_PT141H.grib2 2026-04-30 16:25 691K
20260430T12Z_MSC_GDPS_WindSpeed_IsbL-0010_LatLon0.15_PT141H.grib2 2026-04-30 16:25 625K
20260430T12Z_MSC_GDPS_WindSpeed_IsbL-0020_LatLon0.15_PT141H.grib2 2026-04-30 16:25 663K
20260430T12Z_MSC_GDPS_WindSpeed_IsbL-0030_LatLon0.15_PT141H.grib2 2026-04-30 16:25 860K
20260430T12Z_MSC_GDPS_WindSpeed_IsbL-0050_LatLon0.15_PT141H.grib2 2026-04-30 16:25 898K
20260430T12Z_MSC_GDPS_WindSpeed_IsbL-0100_LatLon0.15_PT141H.grib2 2026-04-30 16:25 865K
20260430T12Z_MSC_GDPS_WindSpeed_IsbL-0150_LatLon0.15_PT141H.grib2 2026-04-30 16:25 1.0M
20260430T12Z_MSC_GDPS_WindSpeed_IsbL-0175_LatLon0.15_PT141H.grib2 2026-04-30 16:25 1.0M
20260430T12Z_MSC_GDPS_WindSpeed_IsbL-0200_LatLon0.15_PT141H.grib2 2026-04-30 16:25 1.1M
20260430T12Z_MSC_GDPS_WindSpeed_IsbL-0225_LatLon0.15_PT141H.grib2 2026-04-30 16:25 1.1M
20260430T12Z_MSC_GDPS_WindSpeed_IsbL-0250_LatLon0.15_PT141H.grib2 2026-04-30 16:25 1.1M
20260430T12Z_MSC_GDPS_WindSpeed_IsbL-0275_LatLon0.15_PT141H.grib2 2026-04-30 16:25 1.1M
20260430T12Z_MSC_GDPS_WindSpeed_IsbL-0300_LatLon0.15_PT141H.grib2 2026-04-30 16:25 1.1M
20260430T12Z_MSC_GDPS_WindSpeed_IsbL-0350_LatLon0.15_PT141H.grib2 2026-04-30 16:25 1.1M
20260430T12Z_MSC_GDPS_WindSpeed_IsbL-0400_LatLon0.15_PT141H.grib2 2026-04-30 16:25 1.1M
20260430T12Z_MSC_GDPS_WindSpeed_IsbL-0450_LatLon0.15_PT141H.grib2 2026-04-30 16:25 1.1M
20260430T12Z_MSC_GDPS_WindSpeed_IsbL-0500_LatLon0.15_PT141H.grib2 2026-04-30 16:25 1.1M
20260430T12Z_MSC_GDPS_WindSpeed_IsbL-0550_LatLon0.15_PT141H.grib2 2026-04-30 16:25 1.1M
20260430T12Z_MSC_GDPS_WindSpeed_IsbL-0600_LatLon0.15_PT141H.grib2 2026-04-30 16:25 1.1M
20260430T12Z_MSC_GDPS_WindSpeed_IsbL-0650_LatLon0.15_PT141H.grib2 2026-04-30 16:25 1.4M
20260430T12Z_MSC_GDPS_WindSpeed_IsbL-0700_LatLon0.15_PT141H.grib2 2026-04-30 16:25 1.5M
20260430T12Z_MSC_GDPS_WindSpeed_IsbL-0750_LatLon0.15_PT141H.grib2 2026-04-30 16:25 1.5M
20260430T12Z_MSC_GDPS_WindSpeed_IsbL-0800_LatLon0.15_PT141H.grib2 2026-04-30 16:25 1.6M
20260430T12Z_MSC_GDPS_WindSpeed_IsbL-0850_LatLon0.15_PT141H.grib2 2026-04-30 16:25 1.7M
20260430T12Z_MSC_GDPS_WindSpeed_IsbL-0875_LatLon0.15_PT141H.grib2 2026-04-30 16:25 1.8M
20260430T12Z_MSC_GDPS_WindSpeed_IsbL-0900_LatLon0.15_PT141H.grib2 2026-04-30 16:25 1.8M
20260430T12Z_MSC_GDPS_WindSpeed_IsbL-0925_LatLon0.15_PT141H.grib2 2026-04-30 16:25 1.9M
20260430T12Z_MSC_GDPS_WindSpeed_IsbL-0950_LatLon0.15_PT141H.grib2 2026-04-30 16:25 1.9M
20260430T12Z_MSC_GDPS_WindSpeed_IsbL-0970_LatLon0.15_PT141H.grib2 2026-04-30 16:25 1.9M
20260430T12Z_MSC_GDPS_WindSpeed_IsbL-0985_LatLon0.15_PT141H.grib2 2026-04-30 16:25 1.8M
20260430T12Z_MSC_GDPS_WindSpeed_IsbL-1000_LatLon0.15_PT141H.grib2 2026-04-30 16:25 1.8M
20260430T12Z_MSC_GDPS_WindSpeed_IsbL-1015_LatLon0.15_PT141H.grib2 2026-04-30 16:25 1.8M
20260430T12Z_MSC_GDPS_WindU_AGL-10m_LatLon0.15_PT141H.grib2 2026-04-30 16:25 1.6M
20260430T12Z_MSC_GDPS_WindU_AGL-120m_LatLon0.15_PT141H.grib2 2026-04-30 16:25 960K
20260430T12Z_MSC_GDPS_WindU_AGL-40m_LatLon0.15_PT141H.grib2 2026-04-30 16:25 958K
20260430T12Z_MSC_GDPS_WindU_AGL-80m_LatLon0.15_PT141H.grib2 2026-04-30 16:25 961K
20260430T12Z_MSC_GDPS_WindU_IsbL-0001_LatLon0.15_PT141H.grib2 2026-04-30 16:25 501K
20260430T12Z_MSC_GDPS_WindU_IsbL-0005_LatLon0.15_PT141H.grib2 2026-04-30 16:25 688K
20260430T12Z_MSC_GDPS_WindU_IsbL-0010_LatLon0.15_PT141H.grib2 2026-04-30 16:25 698K
20260430T12Z_MSC_GDPS_WindU_IsbL-0020_LatLon0.15_PT141H.grib2 2026-04-30 16:25 730K
20260430T12Z_MSC_GDPS_WindU_IsbL-0030_LatLon0.15_PT141H.grib2 2026-04-30 16:25 737K
20260430T12Z_MSC_GDPS_WindU_IsbL-0050_LatLon0.15_PT141H.grib2 2026-04-30 16:25 764K
20260430T12Z_MSC_GDPS_WindU_IsbL-0100_LatLon0.15_PT141H.grib2 2026-04-30 16:25 922K
20260430T12Z_MSC_GDPS_WindU_IsbL-0150_LatLon0.15_PT141H.grib2 2026-04-30 16:25 1.0M
20260430T12Z_MSC_GDPS_WindU_IsbL-0175_LatLon0.15_PT141H.grib2 2026-04-30 16:25 1.0M
20260430T12Z_MSC_GDPS_WindU_IsbL-0200_LatLon0.15_PT141H.grib2 2026-04-30 16:25 1.1M
20260430T12Z_MSC_GDPS_WindU_IsbL-0225_LatLon0.15_PT141H.grib2 2026-04-30 16:25 852K
20260430T12Z_MSC_GDPS_WindU_IsbL-0250_LatLon0.15_PT141H.grib2 2026-04-30 16:25 853K
20260430T12Z_MSC_GDPS_WindU_IsbL-0275_LatLon0.15_PT141H.grib2 2026-04-30 16:25 877K
20260430T12Z_MSC_GDPS_WindU_IsbL-0300_LatLon0.15_PT141H.grib2 2026-04-30 16:25 869K
20260430T12Z_MSC_GDPS_WindU_IsbL-0350_LatLon0.15_PT141H.grib2 2026-04-30 16:25 886K
20260430T12Z_MSC_GDPS_WindU_IsbL-0400_LatLon0.15_PT141H.grib2 2026-04-30 16:25 888K
20260430T12Z_MSC_GDPS_WindU_IsbL-0450_LatLon0.15_PT141H.grib2 2026-04-30 16:25 890K
20260430T12Z_MSC_GDPS_WindU_IsbL-0500_LatLon0.15_PT141H.grib2 2026-04-30 16:25 1.1M
20260430T12Z_MSC_GDPS_WindU_IsbL-0550_LatLon0.15_PT141H.grib2 2026-04-30 16:25 1.1M
20260430T12Z_MSC_GDPS_WindU_IsbL-0600_LatLon0.15_PT141H.grib2 2026-04-30 16:25 1.1M
20260430T12Z_MSC_GDPS_WindU_IsbL-0650_LatLon0.15_PT141H.grib2 2026-04-30 16:25 1.2M
20260430T12Z_MSC_GDPS_WindU_IsbL-0700_LatLon0.15_PT141H.grib2 2026-04-30 16:25 1.2M
20260430T12Z_MSC_GDPS_WindU_IsbL-0750_LatLon0.15_PT141H.grib2 2026-04-30 16:25 1.3M
20260430T12Z_MSC_GDPS_WindU_IsbL-0800_LatLon0.15_PT141H.grib2 2026-04-30 16:25 1.4M
20260430T12Z_MSC_GDPS_WindU_IsbL-0850_LatLon0.15_PT141H.grib2 2026-04-30 16:25 1.4M
20260430T12Z_MSC_GDPS_WindU_IsbL-0875_LatLon0.15_PT141H.grib2 2026-04-30 16:25 1.5M
20260430T12Z_MSC_GDPS_WindU_IsbL-0900_LatLon0.15_PT141H.grib2 2026-04-30 16:25 1.5M
20260430T12Z_MSC_GDPS_WindU_IsbL-0925_LatLon0.15_PT141H.grib2 2026-04-30 16:25 1.5M
20260430T12Z_MSC_GDPS_WindU_IsbL-0950_LatLon0.15_PT141H.grib2 2026-04-30 16:25 1.4M
20260430T12Z_MSC_GDPS_WindU_IsbL-0970_LatLon0.15_PT141H.grib2 2026-04-30 16:25 1.4M
20260430T12Z_MSC_GDPS_WindU_IsbL-0985_LatLon0.15_PT141H.grib2 2026-04-30 16:25 1.4M
20260430T12Z_MSC_GDPS_WindU_IsbL-1000_LatLon0.15_PT141H.grib2 2026-04-30 16:25 1.4M
20260430T12Z_MSC_GDPS_WindU_IsbL-1015_LatLon0.15_PT141H.grib2 2026-04-30 16:25 1.6M
20260430T12Z_MSC_GDPS_WindV_AGL-10m_LatLon0.15_PT141H.grib2 2026-04-30 16:25 1.6M
20260430T12Z_MSC_GDPS_WindV_AGL-120m_LatLon0.15_PT141H.grib2 2026-04-30 16:25 962K
20260430T12Z_MSC_GDPS_WindV_AGL-40m_LatLon0.15_PT141H.grib2 2026-04-30 16:25 1.2M
20260430T12Z_MSC_GDPS_WindV_AGL-80m_LatLon0.15_PT141H.grib2 2026-04-30 16:25 964K
20260430T12Z_MSC_GDPS_WindV_IsbL-0001_LatLon0.15_PT141H.grib2 2026-04-30 16:25 710K
20260430T12Z_MSC_GDPS_WindV_IsbL-0005_LatLon0.15_PT141H.grib2 2026-04-30 16:25 854K
20260430T12Z_MSC_GDPS_WindV_IsbL-0010_LatLon0.15_PT141H.grib2 2026-04-30 16:25 879K
20260430T12Z_MSC_GDPS_WindV_IsbL-0020_LatLon0.15_PT141H.grib2 2026-04-30 16:25 929K
20260430T12Z_MSC_GDPS_WindV_IsbL-0030_LatLon0.15_PT141H.grib2 2026-04-30 16:25 932K
20260430T12Z_MSC_GDPS_WindV_IsbL-0050_LatLon0.15_PT141H.grib2 2026-04-30 16:25 894K
20260430T12Z_MSC_GDPS_WindV_IsbL-0100_LatLon0.15_PT141H.grib2 2026-04-30 16:25 1.1M
20260430T12Z_MSC_GDPS_WindV_IsbL-0150_LatLon0.15_PT141H.grib2 2026-04-30 16:25 1.0M
20260430T12Z_MSC_GDPS_WindV_IsbL-0175_LatLon0.15_PT141H.grib2 2026-04-30 16:25 1.0M
20260430T12Z_MSC_GDPS_WindV_IsbL-0200_LatLon0.15_PT141H.grib2 2026-04-30 16:25 837K
20260430T12Z_MSC_GDPS_WindV_IsbL-0225_LatLon0.15_PT141H.grib2 2026-04-30 16:25 847K
20260430T12Z_MSC_GDPS_WindV_IsbL-0250_LatLon0.15_PT141H.grib2 2026-04-30 16:25 907K
20260430T12Z_MSC_GDPS_WindV_IsbL-0275_LatLon0.15_PT141H.grib2 2026-04-30 16:25 873K
20260430T12Z_MSC_GDPS_WindV_IsbL-0300_LatLon0.15_PT141H.grib2 2026-04-30 16:25 863K
20260430T12Z_MSC_GDPS_WindV_IsbL-0350_LatLon0.15_PT141H.grib2 2026-04-30 16:25 877K
20260430T12Z_MSC_GDPS_WindV_IsbL-0400_LatLon0.15_PT141H.grib2 2026-04-30 16:25 878K
20260430T12Z_MSC_GDPS_WindV_IsbL-0450_LatLon0.15_PT141H.grib2 2026-04-30 16:25 877K
20260430T12Z_MSC_GDPS_WindV_IsbL-0500_LatLon0.15_PT141H.grib2 2026-04-30 16:25 1.1M
20260430T12Z_MSC_GDPS_WindV_IsbL-0550_LatLon0.15_PT141H.grib2 2026-04-30 16:25 1.1M
20260430T12Z_MSC_GDPS_WindV_IsbL-0600_LatLon0.15_PT141H.grib2 2026-04-30 16:25 1.1M
20260430T12Z_MSC_GDPS_WindV_IsbL-0650_LatLon0.15_PT141H.grib2 2026-04-30 16:25 1.2M
20260430T12Z_MSC_GDPS_WindV_IsbL-0700_LatLon0.15_PT141H.grib2 2026-04-30 16:25 1.2M
20260430T12Z_MSC_GDPS_WindV_IsbL-0750_LatLon0.15_PT141H.grib2 2026-04-30 16:25 1.3M
20260430T12Z_MSC_GDPS_WindV_IsbL-0800_LatLon0.15_PT141H.grib2 2026-04-30 16:25 1.3M
20260430T12Z_MSC_GDPS_WindV_IsbL-0850_LatLon0.15_PT141H.grib2 2026-04-30 16:25 1.4M
20260430T12Z_MSC_GDPS_WindV_IsbL-0875_LatLon0.15_PT141H.grib2 2026-04-30 16:25 1.4M
20260430T12Z_MSC_GDPS_WindV_IsbL-0900_LatLon0.15_PT141H.grib2 2026-04-30 16:25 1.4M
20260430T12Z_MSC_GDPS_WindV_IsbL-0925_LatLon0.15_PT141H.grib2 2026-04-30 16:25 1.4M
20260430T12Z_MSC_GDPS_WindV_IsbL-0950_LatLon0.15_PT141H.grib2 2026-04-30 16:25 1.4M
20260430T12Z_MSC_GDPS_WindV_IsbL-0970_LatLon0.15_PT141H.grib2 2026-04-30 16:25 1.4M
20260430T12Z_MSC_GDPS_WindV_IsbL-0985_LatLon0.15_PT141H.grib2 2026-04-30 16:25 1.4M
20260430T12Z_MSC_GDPS_WindV_IsbL-1000_LatLon0.15_PT141H.grib2 2026-04-30 16:25 1.7M
20260430T12Z_MSC_GDPS_WindV_IsbL-1015_LatLon0.15_PT141H.grib2 2026-04-30 16:25 1.6M